27-05-2022, 00:00:08,    225,    0.0,   12.0,   0.00,   0.00, 1018.4,   86.8, -999.0
27-05-2022, 00:00:18,    224,    0.1,   12.0,   0.00,   0.00, 1018.5,   86.9, -999.0
27-05-2022, 00:00:27,    225,    0.0,   11.9,   0.00,   0.00, 1018.4,   86.7, -999.0
27-05-2022, 00:00:37,    225,    0.0,   11.9,   0.00,   0.00, 1018.4,   86.7, -999.0
27-05-2022, 00:00:48,    225,    0.0,   12.0,   0.00,   0.00, 1018.4,   86.9, -999.0
27-05-2022, 00:00:57,    274,    1.1,   12.0,   0.00,   0.00, 1018.5,   87.1, -999.0
27-05-2022, 00:01:07,    238,    3.4,   12.1,   0.00,   0.00, 1018.5,   87.1, -999.0
27-05-2022, 00:01:17,    246,    2.7,   12.0,   0.00,   0.00, 1018.5,   87.0, -999.0
27-05-2022, 00:01:27,    282,    1.4,   12.1,   0.00,   0.00, 1018.5,   87.0, -999.0
27-05-2022, 00:01:37,    313,    0.2,   12.0,   0.00,   0.00, 1018.5,   86.9, -999.0
27-05-2022, 00:01:47,    313,    0.0,   11.9,   0.00,   0.00, 1018.4,   86.6, -999.0
27-05-2022, 00:01:57,    313,    0.0,   11.9,   0.00,   0.00, 1018.4,   86.6, -999.0
27-05-2022, 00:02:07,    313,    0.0,   11.9,   0.00,   0.00, 1018.3,   86.6, -999.0
27-05-2022, 00:02:17,    313,    0.0,   11.9,   0.00,   0.00, 1018.4,   86.7, -999.0
27-05-2022, 00:02:27,    288,    0.2,   12.0,   0.00,   0.00, 1018.4,   86.9, -999.0
27-05-2022, 00:02:37,    267,    1.1,   12.0,   0.00,   0.00, 1018.5,   87.2, -999.0
27-05-2022, 00:02:47,    265,    1.5,   12.1,   0.00,   0.00, 1018.5,   87.2, -999.0
27-05-2022, 00:02:57,    235,    1.1,   12.0,   0.00,   0.00, 1018.5,   87.2, -999.0
27-05-2022, 00:03:06,    218,    2.9,   12.1,   0.00,   0.00, 1018.5,   87.2, -999.0
27-05-2022, 00:03:17,    217,    1.4,   12.0,   0.00,   0.00, 1018.5,   87.1, -999.0
27-05-2022, 00:03:27,    216,    1.4,   12.0,   0.00,   0.00, 1018.6,   87.1, -999.0
27-05-2022, 00:03:36,    220,    2.5,   12.1,   0.00,   0.00, 1018.5,   87.0, -999.0
27-05-2022, 00:03:46,    216,    2.1,   12.1,   0.00,   0.00, 1018.5,   87.1, -999.0
27-05-2022, 00:03:57,    253,    1.7,   12.1,   0.00,   0.00, 1018.5,   87.1, -999.0
27-05-2022, 00:04:06,    223,    1.2,   12.1,   0.00,   0.00, 1018.5,   87.1, -999.0
27-05-2022, 00:04:16,    209,    1.0,   12.1,   0.00,   0.00, 1018.5,   87.2, -999.0
27-05-2022, 00:04:26,    210,    0.1,   12.0,   0.00,   0.00, 1018.5,   87.1, -999.0
27-05-2022, 00:04:36,    218,    0.2,   12.0,   0.00,   0.00, 1018.4,   86.7, -999.0
27-05-2022, 00:04:46,    219,    0.3,   12.0,   0.00,   0.00, 1018.4,   87.0, -999.0
27-05-2022, 00:04:56,    227,    1.0,   12.1,   0.00,   0.00, 1018.5,   87.1, -999.0
27-05-2022, 00:05:06,    228,    0.6,   12.1,   0.00,   0.00, 1018.4,   87.1, -999.0
27-05-2022, 00:05:16,    227,    0.1,   12.0,   0.00,   0.00, 1018.4,   87.0, -999.0
27-05-2022, 00:05:26,    227,    0.4,   12.0,   0.00,   0.00, 1018.4,   87.1, -999.0
27-05-2022, 00:05:36,    248,    1.2,   12.0,   0.00,   0.00, 1018.4,   86.9, -999.0
27-05-2022, 00:05:46,    191,    0.7,   12.0,   0.00,   0.00, 1018.5,   87.1, -999.0
27-05-2022, 00:05:56,    195,    0.1,   11.9,   0.00,   0.00, 1018.3,   86.8, -999.0
27-05-2022, 00:06:06,    195,    0.0,   11.9,   0.00,   0.00, 1018.3,   86.7, -999.0
27-05-2022, 00:06:15,    216,    0.0,   11.9,   0.00,   0.00, 1018.3,   86.8, -999.0
27-05-2022, 00:06:26,    220,    0.1,   11.9,   0.00,   0.00, 1018.3,   86.8, -999.0
27-05-2022, 00:06:36,    237,    0.5,   12.0,   0.00,   0.00, 1018.4,   87.0, -999.0
27-05-2022, 00:06:45,    237,    0.0,   11.9,   0.00,   0.00, 1018.3,   86.8, -999.0
27-05-2022, 00:06:56,    237,    0.0,   11.9,   0.00,   0.00, 1018.3,   86.7, -999.0
27-05-2022, 00:07:06,    237,    0.0,   11.9,   0.00,   0.00, 1018.3,   86.7, -999.0
27-05-2022, 00:07:15,    237,    0.0,   11.9,   0.00,   0.00, 1018.3,   86.7, -999.0
27-05-2022, 00:07:25,    237,    0.0,   11.9,   0.00,   0.00, 1018.3,   86.8, -999.0
27-05-2022, 00:07:36,    237,    0.0,   12.0,   0.00,   0.00, 1018.3,   86.8, -999.0
27-05-2022, 00:07:45,    252,    0.4,   12.0,   0.00,   0.00, 1018.4,   87.0, -999.0
27-05-2022, 00:07:55,    242,    1.7,   12.0,   0.00,   0.00, 1018.4,   87.2, -999.0
27-05-2022, 00:08:05,    279,    1.8,   12.0,   0.00,   0.00, 1018.4,   87.1, -999.0
27-05-2022, 00:08:15,    260,    2.1,   12.0,   0.00,   0.00, 1018.4,   87.2, -999.0
27-05-2022, 00:08:25,    258,    2.7,   12.0,   0.00,   0.00, 1018.4,   87.2, -999.0
27-05-2022, 00:08:35,    235,    2.1,   12.0,   0.00,   0.00, 1018.4,   87.1, -999.0
27-05-2022, 00:08:45,    288,    1.3,   12.0,   0.00,   0.00, 1018.4,   87.2, -999.0
27-05-2022, 00:08:55,    278,    1.5,   12.0,   0.00,   0.00, 1018.4,   87.1, -999.0
27-05-2022, 00:09:05,    275,    1.3,   12.0,   0.00,   0.00, 1018.4,   87.1, -999.0
27-05-2022, 00:09:15,    274,    0.8,   12.0,   0.00,   0.00, 1018.4,   87.1, -999.0
27-05-2022, 00:09:25,    225,    1.1,   12.0,   0.00,   0.00, 1018.4,   87.0, -999.0
27-05-2022, 00:09:35,    225,    0.2,   12.1,   0.00,   0.00, 1018.3,   86.8, -999.0
27-05-2022, 00:09:45,    225,    0.0,   11.9,   0.00,   0.00, 1018.2,   86.7, -999.0
27-05-2022, 00:09:54,    225,    0.0,   11.8,   0.00,   0.00, 1018.3,   86.7, -999.0
27-05-2022, 00:10:05,    225,    0.0,   11.9,   0.00,   0.00, 1018.3,   86.7, -999.0
27-05-2022, 00:10:15,    226,    0.0,   11.9,   0.00,   0.00, 1018.3,   86.8, -999.0
27-05-2022, 00:10:24,    226,    0.0,   11.9,   0.00,   0.00, 1018.2,   86.7, -999.0
27-05-2022, 00:10:34,    226,    0.0,   11.9,   0.00,   0.00, 1018.2,   86.7, -999.0
27-05-2022, 00:10:45,    225,    0.0,   11.9,   0.00,   0.00, 1018.3,   86.7, -999.0
27-05-2022, 00:10:54,    225,    0.0,   12.0,   0.00,   0.00, 1018.3,   86.7, -999.0
27-05-2022, 00:11:04,    226,    0.0,   11.9,   0.00,   0.00, 1018.3,   86.8, -999.0
27-05-2022, 00:11:14,    225,    0.0,   11.8,   0.00,   0.00, 1018.3,   86.7, -999.0
27-05-2022, 00:11:24,    226,    0.0,   11.9,   0.00,   0.00, 1018.3,   86.8, -999.0
27-05-2022, 00:11:34,    237,    0.1,   12.0,   0.00,   0.00, 1018.3,   87.0, -999.0
27-05-2022, 00:11:44,    252,    0.2,   11.9,   0.00,   0.00, 1018.3,   87.0, -999.0
27-05-2022, 00:11:54,    254,    0.7,   12.0,   0.00,   0.00, 1018.4,   87.1, -999.0
27-05-2022, 00:12:04,    226,    0.0,   12.0,   0.00,   0.00, 1018.4,   86.9, -999.0
27-05-2022, 00:12:14,    225,    0.2,   12.0,   0.00,   0.00, 1018.4,   87.1, -999.0
27-05-2022, 00:12:24,    225,    0.4,   12.0,   0.00,   0.00, 1018.5,   87.0, -999.0
27-05-2022, 00:12:34,    245,    1.8,   12.0,   0.00,   0.00, 1018.4,   87.2, -999.0
27-05-2022, 00:12:44,    309,    2.4,   11.9,   0.00,   0.00, 1018.4,   87.1, -999.0
27-05-2022, 00:12:54,    272,    3.4,   12.0,   0.00,   0.00, 1018.4,   87.1, -999.0
27-05-2022, 00:13:03,    291,    3.0,   12.0,   0.00,   0.00, 1018.4,   86.9, -999.0
27-05-2022, 00:13:14,    275,    3.5,   12.0,   0.00,   0.00, 1018.4,   87.0, -999.0
27-05-2022, 00:13:24,    253,    4.6,   11.9,   0.00,   0.00, 1018.4,   86.9, -999.0
27-05-2022, 00:13:33,    256,    2.8,   11.9,   0.00,   0.00, 1018.3,   86.9, -999.0
27-05-2022, 00:13:44,    256,    2.2,   11.9,   0.00,   0.00, 1018.4,   87.0, -999.0
27-05-2022, 00:13:54,    254,    0.9,   11.9,   0.00,   0.00, 1018.4,   86.9, -999.0
27-05-2022, 00:14:03,    253,    0.4,   11.9,   0.00,   0.00, 1018.4,   87.0, -999.0
27-05-2022, 00:14:13,    273,    2.8,   11.9,   0.00,   0.00, 1018.4,   87.0, -999.0
27-05-2022, 00:14:23,    254,    2.1,   11.9,   0.00,   0.00, 1018.4,   87.0, -999.0
27-05-2022, 00:14:33,    250,    1.1,   12.0,   0.00,   0.00, 1018.4,   87.0, -999.0
27-05-2022, 00:14:43,    249,    2.2,   11.9,   0.00,   0.00, 1018.4,   87.0, -999.0
27-05-2022, 00:14:53,    264,    1.4,   11.9,   0.00,   0.00, 1018.4,   87.0, -999.0
27-05-2022, 00:15:03,    277,    1.1,   11.9,   0.00,   0.00, 1018.4,   87.0, -999.0
27-05-2022, 00:15:13,    261,    0.7,   11.9,   0.00,   0.00, 1018.4,   87.0, -999.0
27-05-2022, 00:15:23,    260,    0.4,   12.0,   0.00,   0.00, 1018.4,   87.0, -999.0
27-05-2022, 00:15:33,    263,    0.9,   11.9,   0.00,   0.00, 1018.4,   87.1, -999.0
27-05-2022, 00:15:43,    192,    0.0,   11.8,   0.00,   0.00, 1018.3,   86.8, -999.0
27-05-2022, 00:15:53,    225,    0.2,   11.9,   0.00,   0.00, 1018.4,   87.0, -999.0
27-05-2022, 00:16:03,    269,    1.3,   12.0,   0.00,   0.00, 1018.4,   87.1, -999.0
27-05-2022, 00:16:13,    270,    1.6,   12.0,   0.00,   0.00, 1018.4,   87.1, -999.0
27-05-2022, 00:16:23,    274,    2.0,   11.9,   0.00,   0.00, 1018.4,   87.2, -999.0
27-05-2022, 00:16:33,    265,    1.8,   12.0,   0.00,   0.00, 1018.4,   87.2, -999.0
27-05-2022, 00:16:42,    248,    1.1,   11.9,   0.00,   0.00, 1018.4,   87.1, -999.0
27-05-2022, 00:16:53,    250,    2.4,   11.9,   0.00,   0.00, 1018.4,   87.1, -999.0
27-05-2022, 00:17:02,    279,    1.9,   12.0,   0.00,   0.00, 1018.4,   87.1, -999.0
27-05-2022, 00:17:12,    244,    2.1,   11.9,   0.00,   0.00, 1018.4,   87.1, -999.0
27-05-2022, 00:17:22,    237,    1.0,   12.0,   0.00,   0.00, 1018.4,   87.1, -999.0
27-05-2022, 00:17:32,    238,    0.7,   11.9,   0.00,   0.00, 1018.4,   87.0, -999.0
27-05-2022, 00:17:42,    244,    1.3,   11.9,   0.00,   0.00, 1018.4,   87.1, -999.0
27-05-2022, 00:17:52,    243,    0.8,   11.9,   0.00,   0.00, 1018.4,   87.1, -999.0
27-05-2022, 00:18:02,    248,    0.3,   11.9,   0.00,   0.00, 1018.3,   87.0, -999.0
27-05-2022, 00:18:12,    248,    0.5,   11.8,   0.00,   0.00, 1018.4,   87.1, -999.0
27-05-2022, 00:18:22,    248,    0.1,   11.9,   0.00,   0.00, 1018.3,   87.0, -999.0
27-05-2022, 00:18:32,    308,    0.6,   11.9,   0.00,   0.00, 1018.4,   87.0, -999.0
27-05-2022, 00:18:42,    230,    0.1,   11.9,   0.00,   0.00, 1018.3,   86.9, -999.0
27-05-2022, 00:18:52,    229,    0.0,   11.9,   0.00,   0.00, 1018.3,   86.9, -999.0
27-05-2022, 00:19:02,    229,    0.1,   11.9,   0.00,   0.00, 1018.3,   87.1, -999.0
27-05-2022, 00:19:12,    229,    0.0,   11.9,   0.00,   0.00, 1018.2,   86.9, -999.0
27-05-2022, 00:19:22,    253,    0.0,   11.9,   0.00,   0.00, 1018.2,   86.9, -999.0
27-05-2022, 00:19:32,    255,    0.7,   11.9,   0.00,   0.00, 1018.4,   87.2, -999.0
27-05-2022, 00:19:42,    254,    0.0,   11.9,   0.00,   0.00, 1018.2,   86.9, -999.0
27-05-2022, 00:19:51,    253,    0.0,   11.9,   0.00,   0.00, 1018.3,   86.9, -999.0
27-05-2022, 00:20:02,    229,    0.0,   11.9,   0.00,   0.00, 1018.3,   87.0, -999.0
27-05-2022, 00:20:12,    249,    2.2,   11.9,   0.00,   0.00, 1018.3,   87.2, -999.0
27-05-2022, 00:20:21,    268,    3.4,   12.0,   0.00,   0.00, 1018.4,   87.2, -999.0
27-05-2022, 00:20:32,    253,    3.2,   11.9,   0.00,   0.00, 1018.4,   87.2, -999.0
27-05-2022, 00:20:41,    251,    1.1,   11.9,   0.00,   0.00, 1018.4,   87.2, -999.0
27-05-2022, 00:20:51,    251,    0.7,   11.9,   0.00,   0.00, 1018.4,   87.2, -999.0
27-05-2022, 00:21:01,    251,    0.4,   11.9,   0.00,   0.00, 1018.4,   87.2, -999.0
27-05-2022, 00:21:11,    251,    0.6,   11.9,   0.00,   0.00, 1018.4,   87.2, -999.0
27-05-2022, 00:21:21,    251,    0.3,   11.9,   0.00,   0.00, 1018.4,   87.2, -999.0
27-05-2022, 00:21:31,    251,    0.7,   11.9,   0.00,   0.00, 1018.4,   87.1, -999.0
27-05-2022, 00:21:41,    251,    0.0,   11.8,   0.00,   0.00, 1018.2,   86.9, -999.0
27-05-2022, 00:21:51,    246,    0.7,   11.8,   0.00,   0.00, 1018.3,   86.9, -999.0
27-05-2022, 00:22:01,    260,    0.6,   11.9,   0.00,   0.00, 1018.4,   87.2, -999.0
27-05-2022, 00:22:11,    294,    0.2,   11.8,   0.00,   0.00, 1018.3,   87.1, -999.0
27-05-2022, 00:22:21,    294,    0.0,   11.8,   0.00,   0.00, 1018.2,   86.8, -999.0
27-05-2022, 00:22:31,    294,    0.0,   11.8,   0.00,   0.00, 1018.3,   86.9, -999.0
27-05-2022, 00:22:41,    253,    0.8,   11.9,   0.00,   0.00, 1018.4,   87.4, -999.0
27-05-2022, 00:22:51,    291,    1.0,   11.9,   0.00,   0.00, 1018.3,   87.3, -999.0
27-05-2022, 00:23:01,    266,    0.6,   11.8,   0.00,   0.00, 1018.3,   87.3, -999.0
27-05-2022, 00:23:11,    259,    0.3,   11.8,   0.00,   0.00, 1018.3,   87.2, -999.0
27-05-2022, 00:23:21,    243,    2.0,   11.9,   0.00,   0.00, 1018.4,   87.3, -999.0
27-05-2022, 00:23:30,    225,    4.1,   11.8,   0.00,   0.00, 1018.4,   87.3, -999.0
27-05-2022, 00:23:41,    250,    2.2,   11.9,   0.00,   0.00, 1018.4,   87.4, -999.0
27-05-2022, 00:23:50,    299,    2.5,   11.8,   0.00,   0.00, 1018.4,   87.3, -999.0
27-05-2022, 00:24:00,    278,    0.5,   11.8,   0.00,   0.00, 1018.3,   87.3, -999.0
27-05-2022, 00:24:10,    255,    1.0,   11.8,   0.00,   0.00, 1018.4,   87.3, -999.0
27-05-2022, 00:24:20,    255,    0.4,   11.8,   0.00,   0.00, 1018.4,   87.4, -999.0
27-05-2022, 00:24:30,    241,    0.9,   11.9,   0.00,   0.00, 1018.4,   87.4, -999.0
27-05-2022, 00:24:40,    234,    0.9,   11.8,   0.00,   0.00, 1018.4,   87.4, -999.0
27-05-2022, 00:24:50,    234,    0.2,   11.8,   0.00,   0.00, 1018.4,   87.4, -999.0
27-05-2022, 00:25:00,    233,    0.0,   11.8,   0.00,   0.00, 1018.2,   87.3, -999.0
27-05-2022, 00:25:10,    234,    0.0,   11.7,   0.00,   0.00, 1018.2,   87.1, -999.0
27-05-2022, 00:25:20,    233,    0.0,   11.7,   0.00,   0.00, 1018.2,   87.2, -999.0
27-05-2022, 00:25:30,    233,    0.0,   11.8,   0.00,   0.00, 1018.2,   87.2, -999.0
27-05-2022, 00:25:40,    234,    0.0,   11.8,   0.00,   0.00, 1018.2,   87.3, -999.0
27-05-2022, 00:25:50,    234,    0.3,   11.7,   0.00,   0.00, 1018.3,   87.5, -999.0
27-05-2022, 00:26:00,    235,    0.2,   11.8,   0.00,   0.00, 1018.3,   87.3, -999.0
27-05-2022, 00:26:10,    234,    0.2,   11.8,   0.00,   0.00, 1018.3,   87.4, -999.0
27-05-2022, 00:26:20,    235,    0.0,   11.7,   0.00,   0.00, 1018.2,   87.2, -999.0
27-05-2022, 00:26:30,    234,    0.0,   11.7,   0.00,   0.00, 1018.3,   87.2, -999.0
27-05-2022, 00:26:39,    234,    0.0,   11.7,   0.00,   0.00, 1018.2,   87.2, -999.0
27-05-2022, 00:26:50,    234,    0.0,   11.8,   0.00,   0.00, 1018.2,   87.2, -999.0
27-05-2022, 00:27:00,    234,    0.0,   11.7,   0.00,   0.00, 1018.2,   87.3, -999.0
27-05-2022, 00:27:09,    234,    0.0,   11.7,   0.00,   0.00, 1018.2,   87.2, -999.0
27-05-2022, 00:27:20,    235,    0.0,   11.7,   0.00,   0.00, 1018.2,   87.3, -999.0
27-05-2022, 00:27:29,    234,    0.0,   11.8,   0.00,   0.00, 1018.2,   87.3, -999.0
27-05-2022, 00:27:39,    234,    0.0,   11.7,   0.00,   0.00, 1018.2,   87.3, -999.0
27-05-2022, 00:27:49,    287,    0.3,   11.7,   0.00,   0.00, 1018.3,   87.4, -999.0
27-05-2022, 00:27:59,    287,    0.6,   11.8,   0.00,   0.00, 1018.4,   87.6, -999.0
27-05-2022, 00:28:09,    286,    0.6,   11.7,   0.00,   0.00, 1018.4,   87.6, -999.0
27-05-2022, 00:28:19,    285,    0.4,   11.8,   0.00,   0.00, 1018.3,   87.7, -999.0
27-05-2022, 00:28:29,    285,    0.0,   11.7,   0.00,   0.00, 1018.2,   87.3, -999.0
27-05-2022, 00:28:39,    284,    0.3,   11.7,   0.00,   0.00, 1018.4,   87.5, -999.0
27-05-2022, 00:28:49,    263,    1.6,   11.8,   0.00,   0.00, 1018.4,   87.7, -999.0
27-05-2022, 00:28:59,    262,    0.9,   11.8,   0.00,   0.00, 1018.4,   87.7, -999.0
27-05-2022, 00:29:09,    286,    2.3,   11.8,   0.00,   0.00, 1018.4,   87.6, -999.0
27-05-2022, 00:29:19,    216,    2.8,   11.8,   0.00,   0.00, 1018.4,   87.6, -999.0
27-05-2022, 00:29:29,    221,    1.2,   11.8,   0.00,   0.00, 1018.4,   87.7, -999.0
27-05-2022, 00:29:39,    221,    0.0,   11.7,   0.00,   0.00, 1018.3,   87.4, -999.0
27-05-2022, 00:29:49,    222,    0.5,   11.7,   0.00,   0.00, 1018.3,   87.6, -999.0
27-05-2022, 00:29:59,    222,    0.1,   11.7,   0.00,   0.00, 1018.3,   87.5, -999.0
27-05-2022, 00:30:09,    222,    0.0,   11.7,   0.00,   0.00, 1018.3,   87.5, -999.0
27-05-2022, 00:30:18,    223,    0.0,   11.7,   0.00,   0.00, 1018.3,   87.4, -999.0
27-05-2022, 00:30:29,    222,    0.0,   11.7,   0.00,   0.00, 1018.2,   87.5, -999.0
27-05-2022, 00:30:38,    224,    0.2,   11.7,   0.00,   0.00, 1018.3,   87.6, -999.0
27-05-2022, 00:30:48,    268,    1.5,   11.8,   0.00,   0.00, 1018.4,   87.9, -999.0
27-05-2022, 00:30:58,    232,    1.3,   11.8,   0.00,   0.00, 1018.4,   87.9, -999.0
27-05-2022, 00:31:08,    247,    0.3,   11.7,   0.00,   0.00, 1018.3,   87.6, -999.0
27-05-2022, 00:31:18,    248,    0.4,   11.8,   0.00,   0.00, 1018.4,   87.8, -999.0
27-05-2022, 00:31:28,    248,    0.0,   11.7,   0.00,   0.00, 1018.3,   87.5, -999.0
27-05-2022, 00:31:38,    247,    0.0,   11.7,   0.00,   0.00, 1018.3,   87.5, -999.0
27-05-2022, 00:31:48,    247,    0.0,   11.6,   0.00,   0.00, 1018.3,   87.6, -999.0
27-05-2022, 00:31:58,    251,    0.3,   11.7,   0.00,   0.00, 1018.3,   87.6, -999.0
27-05-2022, 00:32:08,    253,    0.8,   11.8,   0.00,   0.00, 1018.4,   87.8, -999.0
27-05-2022, 00:32:18,    253,    0.1,   11.7,   0.00,   0.00, 1018.3,   87.7, -999.0
27-05-2022, 00:32:28,    249,    0.0,   11.7,   0.00,   0.00, 1018.2,   87.5, -999.0
27-05-2022, 00:32:38,    275,    0.5,   11.7,   0.00,   0.00, 1018.3,   87.9, -999.0
27-05-2022, 00:32:48,    274,    0.8,   11.8,   0.00,   0.00, 1018.4,   88.0, -999.0
27-05-2022, 00:32:58,    289,    1.1,   11.8,   0.00,   0.00, 1018.4,   88.0, -999.0
27-05-2022, 00:33:08,    284,    0.5,   11.8,   0.00,   0.00, 1018.3,   87.9, -999.0
27-05-2022, 00:33:18,    284,    0.5,   11.8,   0.00,   0.00, 1018.4,   87.9, -999.0
27-05-2022, 00:33:27,    284,    0.0,   11.6,   0.00,   0.00, 1018.3,   87.6, -999.0
27-05-2022, 00:33:38,    244,    1.0,   11.6,   0.00,   0.00, 1018.4,   88.0, -999.0
27-05-2022, 00:33:47,    244,    0.0,   11.7,   0.00,   0.00, 1018.3,   87.7, -999.0
27-05-2022, 00:33:57,    245,    0.0,   11.6,   0.00,   0.00, 1018.2,   87.7, -999.0
27-05-2022, 00:34:08,    244,    0.0,   11.6,   0.00,   0.00, 1018.3,   87.7, -999.0
27-05-2022, 00:34:17,    244,    0.0,   11.6,   0.00,   0.00, 1018.3,   87.6, -999.0
27-05-2022, 00:34:27,    245,    0.0,   11.6,   0.00,   0.00, 1018.3,   87.6, -999.0
27-05-2022, 00:34:37,    244,    0.0,   11.7,   0.00,   0.00, 1018.3,   87.7, -999.0
27-05-2022, 00:34:47,    245,    0.0,   11.7,   0.00,   0.00, 1018.3,   87.6, -999.0
27-05-2022, 00:34:57,    244,    0.0,   11.7,   0.00,   0.00, 1018.3,   87.7, -999.0
27-05-2022, 00:35:07,    244,    0.0,   11.6,   0.00,   0.00, 1018.3,   87.7, -999.0
27-05-2022, 00:35:17,    245,    0.0,   11.7,   0.00,   0.00, 1018.3,   88.0, -999.0
27-05-2022, 00:35:27,    245,    0.1,   11.7,   0.00,   0.00, 1018.3,   87.9, -999.0
27-05-2022, 00:35:37,    245,    0.0,   11.7,   0.00,   0.00, 1018.3,   87.7, -999.0
27-05-2022, 00:35:47,    245,    0.0,   11.7,   0.00,   0.00, 1018.3,   87.8, -999.0
27-05-2022, 00:35:57,    245,    0.0,   11.7,   0.00,   0.00, 1018.3,   87.8, -999.0
27-05-2022, 00:36:07,    245,    0.0,   11.7,   0.00,   0.00, 1018.3,   87.8, -999.0
27-05-2022, 00:36:17,    245,    0.0,   11.7,   0.00,   0.00, 1018.3,   87.7, -999.0
27-05-2022, 00:36:27,    245,    0.0,   11.7,   0.00,   0.00, 1018.3,   87.8, -999.0
27-05-2022, 00:36:37,    245,    0.0,   11.7,   0.00,   0.00, 1018.3,   87.8, -999.0
27-05-2022, 00:36:47,    258,    1.6,   11.7,   0.00,   0.00, 1018.4,   88.1, -999.0
27-05-2022, 00:36:56,    256,    2.5,   11.8,   0.00,   0.00, 1018.4,   88.2, -999.0
27-05-2022, 00:37:06,    250,    2.8,   11.8,   0.00,   0.00, 1018.4,   88.2, -999.0
27-05-2022, 00:37:17,    251,    0.9,   11.8,   0.00,   0.00, 1018.4,   88.1, -999.0
27-05-2022, 00:37:26,    270,    1.4,   11.8,   0.00,   0.00, 1018.4,   88.1, -999.0
27-05-2022, 00:37:36,    266,    2.1,   11.8,   0.00,   0.00, 1018.4,   88.1, -999.0
27-05-2022, 00:37:46,    245,    2.8,   11.8,   0.00,   0.00, 1018.4,   88.1, -999.0
27-05-2022, 00:37:56,    203,    1.5,   11.8,   0.00,   0.00, 1018.4,   88.1, -999.0
27-05-2022, 00:38:06,    242,    2.0,   11.8,   0.00,   0.00, 1018.4,   88.2, -999.0
27-05-2022, 00:38:16,    242,    0.7,   11.7,   0.00,   0.00, 1018.3,   88.1, -999.0
27-05-2022, 00:38:26,    242,    0.0,   11.7,   0.00,   0.00, 1018.3,   87.9, -999.0
27-05-2022, 00:38:36,    242,    0.7,   11.7,   0.00,   0.00, 1018.4,   88.2, -999.0
27-05-2022, 00:38:46,    205,    0.5,   11.8,   0.00,   0.00, 1018.4,   88.1, -999.0
27-05-2022, 00:38:56,    204,    0.4,   11.8,   0.00,   0.00, 1018.3,   88.2, -999.0
27-05-2022, 00:39:06,    302,    0.0,   11.6,   0.00,   0.00, 1018.3,   87.9, -999.0
27-05-2022, 00:39:16,    296,    1.0,   11.8,   0.00,   0.00, 1018.4,   88.3, -999.0
27-05-2022, 00:39:26,    243,    1.5,   11.8,   0.00,   0.00, 1018.4,   88.3, -999.0
27-05-2022, 00:39:36,    249,    1.9,   11.8,   0.00,   0.00, 1018.4,   88.2, -999.0
27-05-2022, 00:39:46,    253,    1.5,   11.7,   0.00,   0.00, 1018.4,   88.2, -999.0
27-05-2022, 00:39:56,    255,    1.9,   11.8,   0.00,   0.00, 1018.4,   88.2, -999.0
27-05-2022, 00:40:05,    236,    0.8,   11.8,   0.00,   0.00, 1018.4,   88.1, -999.0
27-05-2022, 00:40:16,    236,    0.0,   11.7,   0.00,   0.00, 1018.3,   87.8, -999.0
27-05-2022, 00:40:26,    237,    0.5,   11.7,   0.00,   0.00, 1018.4,   88.1, -999.0
27-05-2022, 00:40:35,    253,    1.4,   11.7,   0.00,   0.00, 1018.4,   88.1, -999.0
27-05-2022, 00:40:45,    251,    1.3,   11.7,   0.00,   0.00, 1018.4,   88.3, -999.0
27-05-2022, 00:40:56,    229,    0.9,   11.8,   0.00,   0.00, 1018.4,   88.2, -999.0
27-05-2022, 00:41:05,    270,    0.9,   11.7,   0.00,   0.00, 1018.4,   88.2, -999.0
27-05-2022, 00:41:15,    270,    0.0,   11.7,   0.00,   0.00, 1018.2,   87.8, -999.0
27-05-2022, 00:41:25,    270,    0.0,   11.6,   0.00,   0.00, 1018.3,   87.8, -999.0
27-05-2022, 00:41:35,    254,    1.5,   11.7,   0.00,   0.00, 1018.4,   88.1, -999.0
27-05-2022, 00:41:45,    235,    1.7,   11.8,   0.00,   0.00, 1018.4,   88.2, -999.0
27-05-2022, 00:41:55,    244,    2.2,   11.8,   0.00,   0.00, 1018.4,   88.3, -999.0
27-05-2022, 00:42:05,    211,    2.1,   11.8,   0.00,   0.00, 1018.4,   88.2, -999.0
27-05-2022, 00:42:15,    256,    2.0,   11.8,   0.00,   0.00, 1018.4,   88.3, -999.0
27-05-2022, 00:42:25,    256,    0.5,   11.8,   0.00,   0.00, 1018.3,   88.2, -999.0
27-05-2022, 00:42:35,    244,    1.1,   11.7,   0.00,   0.00, 1018.4,   88.3, -999.0
27-05-2022, 00:42:45,    241,    1.2,   11.8,   0.00,   0.00, 1018.4,   88.3, -999.0
27-05-2022, 00:42:55,    233,    1.1,   11.8,   0.00,   0.00, 1018.4,   88.3, -999.0
27-05-2022, 00:43:05,    232,    1.1,   11.8,   0.00,   0.00, 1018.4,   88.3, -999.0
27-05-2022, 00:43:14,    231,    0.9,   11.8,   0.00,   0.00, 1018.4,   88.4, -999.0
27-05-2022, 00:43:25,    244,    1.2,   11.8,   0.00,   0.00, 1018.4,   88.4, -999.0
27-05-2022, 00:43:35,    257,    1.7,   11.8,   0.00,   0.00, 1018.4,   88.3, -999.0
27-05-2022, 00:43:44,    252,    1.0,   11.8,   0.00,   0.00, 1018.4,   88.4, -999.0
27-05-2022, 00:43:54,    248,    0.7,   11.8,   0.00,   0.00, 1018.4,   88.4, -999.0
27-05-2022, 00:44:05,    240,    1.8,   11.8,   0.00,   0.00, 1018.4,   88.3, -999.0
27-05-2022, 00:44:14,    279,    2.2,   11.8,   0.00,   0.00, 1018.4,   88.4, -999.0
27-05-2022, 00:44:24,    260,    1.2,   11.8,   0.00,   0.00, 1018.4,   88.4, -999.0
27-05-2022, 00:44:34,    252,    1.9,   11.8,   0.00,   0.00, 1018.4,   88.3, -999.0
27-05-2022, 00:44:44,    255,    1.9,   11.8,   0.00,   0.00, 1018.4,   88.3, -999.0
27-05-2022, 00:44:54,    256,    3.0,   11.8,   0.00,   0.00, 1018.4,   88.3, -999.0
27-05-2022, 00:45:04,    273,    2.4,   11.7,   0.00,   0.00, 1018.4,   88.2, -999.0
27-05-2022, 00:45:14,    267,    1.4,   11.7,   0.00,   0.00, 1018.4,   88.2, -999.0
27-05-2022, 00:45:24,    261,    1.0,   11.7,   0.00,   0.00, 1018.3,   88.2, -999.0
27-05-2022, 00:45:34,    262,    1.0,   11.6,   0.00,   0.00, 1018.3,   88.2, -999.0
27-05-2022, 00:45:44,    260,    1.9,   11.7,   0.00,   0.00, 1018.4,   88.3, -999.0
27-05-2022, 00:45:54,    262,    0.9,   11.7,   0.00,   0.00, 1018.3,   88.1, -999.0
27-05-2022, 00:46:04,    262,    0.5,   11.7,   0.00,   0.00, 1018.3,   88.2, -999.0
27-05-2022, 00:46:14,    261,    0.0,   11.6,   0.00,   0.00, 1018.2,   87.9, -999.0
27-05-2022, 00:46:23,    260,    0.1,   11.7,   0.00,   0.00, 1018.2,   88.0, -999.0
27-05-2022, 00:46:34,    260,    0.0,   11.6,   0.00,   0.00, 1018.2,   87.9, -999.0
27-05-2022, 00:46:44,    235,    0.0,   11.6,   0.00,   0.00, 1018.2,   87.9, -999.0